Cloud_Cover
100 67 100 100 37 2 0 0 0 0 0 0 0 0 0 0 0 0 0 0 0 0 5 5 4 0 5 43 99 100 100 94 4 64 48 4 3 55 0 5 5 4 5 6 5
50 100 100 100 99 66 3 0 0 0 0 0 0 0 0 0 0 0 0 0 1 8 5 6 91 62 13 8 42 100 100 18 11 5 100 100 100 59 5 1 1 0 1 1 5
100 100 100 100 100 88 45 5 0 2 2 0 0 0 0 0 0 0 0 0 30 55 54 22 99 100 100 73 100 100 99 81 92 15 100 100 94 100 26 99 33 2 0 1 1
100 100 100 100 100 100 25 41 5 1 5 0 0 0 0 0 1 1 4 40 73 100 100 100 100 100 71 20 83 100 100 100 100 10 56 100 100 90 88 27 0 91 16 20 98
100 100 100 100 100 100 100 75 65 15 5 0 0 0 0 0 0 5 16 69 100 100 100 100 100 100 92 28 72 100 100 100 100 100 100 92 46 69 96 0 3 61 4 33 55
100 100 100 100 100 100 100 100 87 98 29 19 0 0 0 4 2 19 88 75 100 100 100 100 100 100 100 100 38 23 100 100 100 54 5 15 75 76 100 83 41 81 95 100 71
100 100 100 100 100 100 100 100 99 100 95 42 12 1 0 2 5 100 77 96 100 96 76 62 81 100 100 92 68 36 16 98 100 5 8 15 28 20 10 68 100 99 100 100 8
100 100 100 100 100 100 100 100 100 100 99 100 16 22 100 35 7 76 8 5 35 7 36 100 86 99 100 100 100 100 98 100 100 100 96 5 27 88 91 100 100 100 100 100 70
100 100 100 100 100 100 100 100 100 100 70 47 100 100 100 84 97 66 100 100 100 68 51 98 100 100 100 100 100 100 44 100 100 100 77 3 18 100 88 24 100 100 100 100 100
100 100 100 100 100 100 100 100 100 100 100 98 100 100 100 100 100 100 100 100 100 100 78 100 100 100 100 100 97 41 64 100 100 100 86 5 39 96 78 98 100 100 100 82 100
100 100 100 100 100 100 100 100 100 100 100 100 100 100 100 100 100 100 100 100 100 100 100 100 100 100 100 100 100 100 100 100 100 100 100 100 100 100 100 100 100 100 10 24 83
100 100 100 100 100 100 100 100 100 100 100 100 100 100 100 100 100 100 100 100 100 100 90 82 88 100 100 100 100 100 100 100 100 100 84 100 100 100 100 100 95 90 3 74 76
100 100 100 100 100 100 100 100 100 100 100 100 100 100 100 100 100 100 100 100 100 100 100 100 100 100 100 100 100 96 100 100 43 66 49 48 100 100 100 68 48 12 86 100 46
100 100 100 100 100 100 100 100 100 100 100 100 84 100 100 100 100 100 100 100 100 100 100 100 99 99 92 40 100 12 100 97 36 8 5 5 50 100 100 85 5 5 96 88 92
100 100 100 100 98 100 100 100 100 100 100 100 100 99 100 98 100 100 100 99 100 100 100 100 100 100 99 100 100 7 97 56 45 5 0 65 95 100 100 98 74 42 98 100 65
100 100 100 100 100 100 100 100 100 100 67 84 100 62 100 100 100 100 100 100 100 100 100 100 100 100 100 100 100 94 54 76 6 4 0 64 9 99 100 100 100 100 100 96 91
100 100 100 100 100 100 100 100 100 100 34 6 100 100 100 100 100 100 100 100 100 100 100 100 100 100 100 98 100 100 100 100 96 100 88 100 10 48 100 100 100 100 100 100 100
100 100 100 100 100 100 100 100 100 22 62 5 100 100 100 100 100 100 100 100 100 100 100 100 100 100 100 100 100 100 100 91 54 18 35 90 100 100 100 100 100 100 100 100 100
100 100 100 100 100 100 100 100 73 100 68 97 100 100 100 100 100 100 100 100 100 100 100 100 100 100 100 100 100 100 53 100 92 6 5 6 84 100 100 100 100 100 97 99 63
100 100 100 100 100 100 100 59 61 11 94 70 100 100 100 100 100 100 100 100 100 100 100 100 100 100 100 100 100 100 100 79 100 94 100 100 90 100 100 100 100 54 51 69 63
100 100 100 100 100 100 100 97 100 92 100 99 89 100 100 100 100 100 100 100 100 100 100 100 100 100 100 100 100 100 99 64 58 6 5 14 76 100 99 32 29 5 5 46 100
100 100 100 100 100 100 100 100 97 100 100 100 100 100 100 100 100 100 100 100 100 100 100 100 99 100 100 100 100 100 100 100 99 100 100 51 18 6 69 86 8 5 5 58 100
100 100 100 100 100 100 97 100 100 100 100 95 100 100 100 100 100 100 100 100 100 100 100 100 100 100 100 100 100 100 100 100 100 63 48 88 68 92 5 5 5 5 5 48 100
100 100 100 100 100 100 100 100 100 100 100 100 100 100 100 99 100 100 100 100 100 100 100 100 100 100 99 100 100 100 100 100 100 94 93 100 99 99 66 5 5 12 52 62 98
100 100 100 100 100 100 100 100 100 100 100 100 100 100 100 100 100 100 100 100 100 100 100 100 100 100 100 93 94 100 100 74 20 99 39 56 43 37 98 99 96 67 70 15 92
100 100 100 100 100 100 100 100 100 100 100 100 100 100 100 100 100 100 100 100 100 100 100 100 100 100 100 100 100 98 100 44 28 78 94 92 100 100 100 100 46 67 81 88 91
100 100 100 100 100 100 100 100 95 100 100 100 100 100 100 100 100 100 100 100 100 100 100 100 100 100 100 100 100 100 16 40 43 100 54 98 100 100 100 100 100 100 100 79 27